Regional Weather Roundup
Issued by NWS

Home | Current Version | Previous Version | Text Only | Print | Product List | Glossary On
Versions: 1 2 3 4 5 6 7 8 9 10 11 12 13 14 15 16 17 18 19 20 21 22 23 24 25 26 27 28 29 30 31 32 33 34 35 36
000
ASUS44 KBMX 231210
RWRAL

ALABAMA REGIONAL WEATHER ROUNDUP
NATIONAL WEATHER SERVICE BIRMINGHAM AL
700 AM CDT THU OCT 23 2014

NOTE: "FAIR" INDICATES FEW OR NO CLOUDS BELOW 12,000 FEET
WITH NO SIGNIFICANT WEATHER AND/OR OBSTRUCTIONS TO VISIBILITY.

THE REMARK "TC" DENOTES TEMPERATURE IN DEGREES CELSIUS.

ALZ001>011-014-016>018-020-231300-
NORTH ALABAMA

CITY           SKY/WX    TMP DP  RH WIND       PRES   REMARKS
MUSCLE SHOALS  CLEAR     44  40  85 NE6       30.19S
6HR MIN TEMP:  41; 6HR MAX TEMP:  49;

HUNTSVILLE     CLEAR     43  39  86 NE3       30.17F
6HR MIN TEMP:  43; 6HR MAX TEMP:  50;

DECATUR        CLEAR     41  39  93 NE3       30.18F
6HR MIN TEMP:  41; 6HR MAX TEMP:  49;

HALEYVILLE     FAIR      42  40  93 NE6       30.17S
6HR MIN TEMP:  39; 6HR MAX TEMP:  43;

GADSDEN        CLEAR     39  36  87 CALM      30.17F
6HR MIN TEMP:  39; 6HR MAX TEMP:  45;

$$

ALZ012-013-022-023-030>036-040>044-231300-
WEST CENTRAL ALABAMA

CITY           SKY/WX    TMP DP  RH WIND       PRES   REMARKS
TUSCALOOSA     CLEAR     40  39  97 CALM      30.17R
6HR MIN TEMP:  40; 6HR MAX TEMP:  48;

$$

ALZ015-024>027-033>036-040>044-231300-
CENTRAL ALABAMA

CITY           SKY/WX    TMP DP  RH WIND       PRES   REMARKS
BIRMINGHAM     CLEAR     43  40  89 CALM      30.17S
6HR MIN TEMP:  42; 6HR MAX TEMP:  48;

MONTGOMERY     CLEAR     45  41  86 N5        30.14R
6HR MIN TEMP:  44; 6HR MAX TEMP:  54;

SHELBY CO ARPT CLEAR     48  41  76 VRB6      30.14R
6HR MIN TEMP:  47; 6HR MAX TEMP:  54;

MAXWELL AFB    CLEAR     45  42  91 N6        30.13R
6HR MIN TEMP:  45; 6HR MAX TEMP:  55;

GREENVILLE     FAIR      41  38  89 N6        30.11R
6HR MIN TEMP:  41; 6HR MAX TEMP:  51;

$$

ALZ019-021-028-029-037-038-045>048-231300-
EAST CENTRAL ALABAMA

CITY           SKY/WX    TMP DP  RH WIND       PRES   REMARKS
ANNISTON       CLEAR     43  39  86 NE9       30.16S
6HR MIN TEMP:  39; 6HR MAX TEMP:  43;

ALEXANDER CITY CLEAR     49  45  86 NE7       30.12S
6HR MIN TEMP:  42; 6HR MAX TEMP:  49;

AUBURN         CLEAR     43  37  81 NE8       30.14F
6HR MIN TEMP:  41; 6HR MAX TEMP:  48;

$$

ALZ051>064-231300-
SOUTHWEST ALABAMA

CITY           SKY/WX    TMP DP  RH WIND       PRES   REMARKS
MOBILE         PTCLDY    48  44  86 NE8       30.09R
6HR MIN TEMP:  48; 6HR MAX TEMP:  53;

BROOKLEY FIELD CLEAR     54  48  80 NE10      30.10R
6HR MIN TEMP:  47; 6HR MAX TEMP:  56;

EVERGREEN      CLEAR     40  38  93 CALM      30.11S
6HR MIN TEMP:  40; 6HR MAX TEMP:  47;

$$

ALZ049-050-065>069-231300-
SOUTHEAST ALABAMA

CITY           SKY/WX    TMP DP  RH WIND       PRES   REMARKS
DOTHAN         CLEAR     44  42  93 NE6       30.13R
6HR MIN TEMP:  42; 6HR MAX TEMP:  49;

OZARK          CLEAR     45  42  90 N3        30.10R
6HR MIN TEMP:  43; 6HR MAX TEMP:  53;

TROY           CLEAR     37  35  92 CALM      30.13R
6HR MIN TEMP:  36; 6HR MAX TEMP:  45;

EUFAULA        FAIR      41  39  93 CALM      30.11R
6HR MIN TEMP:  39; 6HR MAX TEMP:  48;

$$



USA.gov is the U.S. government's official web portal to all federal, state and local government web resources and services.